Location: *
(43.4667°N, 11.6833°E)
Time: 10:03:37
(UTC+00:00)

USA 229 - Pass Details

Date: 19 July 2019
Orbit: 1002 x 1210 km, 63.4° (Epoch: 18 August)

Event Time Altitude Azimuth Distance (km) Brightness Sun altitude
Rises 20:44:25 0° 212° (SSW) 3,722 6.3 -16.5°
Reaches altitude 10° 20:46:57 10° 212° (SSW) 2,787 5.7 -16.8°
Maximum altitude 20:53:31 85° 126° (SE) 1,047 3.6 -17.5°
Drops below altitude 10° 21:00:24 10° 38° (NE) 2,917 6.2 -18.3°
Sets 21:03:07 0° 38° (NE) 3,907 6.9 -18.5°
